This is the latest recevied weather packets stored in our database for station/object Reichnbch. If no packets are shown the sender has not sent any weather packets the latest 10 day(s).
| Time | Temp. | Humidity | Pressure | Rain* | Wind** | Luminosity | Snow |
|---|---|---|---|---|---|---|---|
| 1778211131 | 4.44° C | 77% | 1018.3 hPa | 0 mm | - | - | - |
| 1778209331 | 5° C | 77% | 1018.2 hPa | 0 mm | - | - | - |
| 1778207531 | 5° C | 77% | 1018.2 hPa | 0 mm | - | - | - |
| 1778205731 | 5.56° C | 77% | 1018.1 hPa | 0 mm | - | - | - |
| 1778203931 | 5.56° C | 77% | 1018.2 hPa | 0 mm | - | - | - |
| 1778202131 | 5.56° C | 77% | 1018 hPa | 0 mm | - | - | - |
| 1778200330 | 5.56° C | 77% | 1018.4 hPa | 0 mm | - | - | - |
| 1778198529 | 6.11° C | 78% | 1018.5 hPa | 0 mm | - | - | - |
| 1778196729 | 6.11° C | 78% | 1018.7 hPa | 0 mm | - | - | - |
| 1778194935 | 6.67° C | 78% | 1018.7 hPa | 0 mm | - | - | - |
| 1778193130 | 7.22° C | 78% | 1018.8 hPa | 0 mm | - | - | - |
| 1778191329 | 7.22° C | 80% | 1018.8 hPa | 0 mm | - | - | - |
| 1778189531 | 7.78° C | 80% | 1018.6 hPa | 7.11 mm | - | - | - |
| 1778187729 | 7.78° C | 81% | 1018.6 hPa | 7.11 mm | - | - | - |
| 1778185929 | 8.33° C | 82% | 1018.5 hPa | 7.11 mm | - | - | - |
| 1778184129 | 8.89° C | 83% | 1018.2 hPa | 7.11 mm | - | - | - |
| 1778182330 | 9.44° C | 84% | 1017.9 hPa | 7.11 mm | - | - | - |
| 1778180532 | 10° C | 85% | 1017.7 hPa | 7.11 mm | - | - | - |
| 1778178730 | 11.11° C | 84% | 1017.4 hPa | 7.11 mm | - | - | - |
| 1778176930 | 11.67° C | 83% | 1017.1 hPa | 7.11 mm | - | - | - |
| 1778175130 | 12.22° C | 82% | 1017 hPa | 7.11 mm | - | - | - |
| 1778173330 | 12.22° C | 81% | 1016.8 hPa | 7.11 mm | - | - | - |
| 1778171530 | 12.78° C | 81% | 1016.8 hPa | 7.11 mm | - | - | - |
| 1778169731 | 13.33° C | 82% | 1016.7 hPa | 7.11 mm | - | - | - |
| 1778167931 | 14.44° C | 80% | 1016.7 hPa | 7.11 mm | - | - | - |
* Rain since midnight (hover to see other rain measurements)
** Current wind speed in m/s (hover to see current wind gust speed)